Location: Great Falls
(47.5000°N, 111.3000°W)
Time: 06:29:23
(UTC-06:00)

ISS - Pass Details

Date: 28 April 2025
Orbit: 416 x 420 km, 51.6° (Epoch: 15 May)

Event Time Altitude Azimuth Distance (km) Brightness Sun altitude
Exits shadow 02:44:28 12° 84° (E) 1,361 -0.9 -25.6°
Drops below altitude 10° 02:44:51 10° 80° (E) 1,495 -0.6 -25.5°
Sets 02:47:06 0° 69° (ENE) 2,362 0.7 -25.4°
